Location: Terra Rouge Observatory
(46.0000°N, 62.7500°W)
Time: 03:59:10
(UTC-03:00)

NOSS 3-1 (A) - Visible Passes

Search period start: 27 September 2016 00:00
Search period end: 07 October 2016 00:00
Orbit: 853 x 1360 km, 63.4° (Epoch: 22 September)

Date Brightness Start Highest point End Pass type
(mag) Time Alt. Az. Time Alt. Az. Time Alt. Az.
27 Sep 5.8 01:31:19 17° NE 01:31:19 17° NE 01:32:44 10° NE visible
27 Sep 4.9 03:18:46 32° NNW 03:18:46 32° NNW 03:23:50 10° NNE visible
27 Sep 5.6 05:06:16 10° NW 05:10:51 19° N 05:15:48 10° NE visible
28 Sep 5.2 02:35:25 30° NNE 02:35:25 30° NNE 02:39:05 10° NNE visible
28 Sep 5.4 04:22:51 17° NW 04:25:22 21° NNW 04:30:32 10° NNE visible
28 Sep 5.7 06:13:53 10° NNW 06:19:04 21° NNE 06:24:40 10° ENE visible
29 Sep 5.6 01:52:04 22° NNE 01:52:04 22° NNE 01:54:20 10° NE visible
29 Sep 5.2 03:39:30 24° NNW 03:39:57 24° NNW 03:45:29 10° NNE visible
29 Sep 5.7 05:28:48 10° NW 05:33:35 19° N 05:38:44 10° NE visible
30 Sep 6.0 01:08:42 14° NE 01:08:42 14° NE 01:09:33 10° NE visible
30 Sep 5.2 02:56:09 27° N 02:56:09 27° N 03:00:37 10° NNE visible
30 Sep 5.7 04:43:35 10° NW 04:48:04 19° N 04:53:01 10° NE visible
30 Sep 5.6 06:35:33 10° NNW 06:41:34 28° NNE 06:48:10 10° E visible
01 Oct 5.5 02:12:47 24° NNE 02:12:47 24° NNE 02:15:50 10° NNE visible
01 Oct 5.5 04:00:13 16° NNW 04:02:34 19° N 04:07:33 10° NE visible
01 Oct 5.7 05:50:44 10° NNW 05:56:14 23° NNE 06:02:11 10° ENE visible
02 Oct 5.9 01:29:25 18° NNE 01:29:25 18° NNE 01:31:05 10° NE visible
02 Oct 5.4 03:16:51 22° NNW 03:17:06 22° NNW 03:22:23 10° NNE visible
02 Oct 5.8 05:05:47 10° NW 05:10:47 20° NNE 05:16:12 10° ENE visible
03 Oct 6.2 00:46:03 11° NE 00:46:03 11° NE 00:46:20 10° NE visible
03 Oct 5.5 02:33:30 23° N 02:33:30 23° N 02:37:25 10° NNE visible
03 Oct 5.8 04:20:55 11° NW 04:25:17 19° N 04:30:19 10° NE visible
03 Oct 5.5 06:12:18 10° NNW 06:18:38 32° NNE 06:25:37 10° E visible
04 Oct 5.8 01:50:08 20° NNE 01:50:08 20° NNE 01:52:35 10° NNE visible
04 Oct 5.6 03:37:35 16° NNW 03:39:46 19° N 03:44:42 10° NE visible
04 Oct 5.7 05:27:33 10° NNW 05:33:22 26° NNE 05:39:41 10° ENE visible
05 Oct 6.1 01:06:47 14° NNE 01:06:47 14° NNE 01:07:50 10° NNE visible
05 Oct 5.6 02:54:13 20° NNW 02:54:16 20° N 02:59:21 10° NE visible
05 Oct 5.8 04:42:41 10° NNW 04:47:58 22° NNE 04:53:42 10° ENE visible
05 Oct 4.9 06:33:40 10° NNW 06:40:45 49° NE 06:48:33 10° ESE visible
06 Oct 5.7 02:10:53 20° N 02:10:53 20° N 02:14:17 10° NNE visible
06 Oct 5.8 03:58:19 12° NNW 04:02:30 20° N 04:07:44 10° NE visible
06 Oct 5.3 05:49:00 10° NNW 05:55:40 37° NE 06:02:59 10° E visible
